Wind_Speed
24 23 23 23 24 24 24 24 24 24 24 24 24 23 22 22 22 22 22 21 21 22 22 22 22 22 22 23 23 23 23 22 22 22 22 23 22 22 22 22 22 21 21
24 24 24 24 24 25 25 26 26 26 25 25 25 24 24 24 24 24 24 23 22 23 23 23 23 24 24 24 24 24 24 24 23 23 23 23 23 23 23 22 22 22 22
25 26 26 26 26 26 27 27 27 27 27 27 27 26 26 26 26 26 25 25 24 24 25 25 24 25 25 25 25 25 25 25 25 25 24 24 24 23 23 23 23 23 23
26 26 26 27 27 28 28 28 28 29 29 28 29 28 28 28 28 28 27 27 26 26 26 26 26 26 26 26 26 26 26 26 25 25 25 25 25 24 24 24 24 24 24
27 27 27 27 28 28 29 29 30 30 31 30 29 29 30 29 29 28 27 27 27 27 27 27 28 27 27 27 27 27 27 26 26 26 26 25 25 25 25 25 25 25 25
28 27 28 28 28 29 29 30 30 31 31 31 31 31 30 30 29 29 28 28 28 28 28 28 28 28 28 28 28 28 29 28 27 27 27 27 26 26 26 26 27 26 26
28 28 28 29 29 30 30 30 31 32 31 33 32 32 32 32 31 31 30 30 30 29 29 29 29 29 29 29 29 29 29 29 29 28 27 27 27 27 27 27 28 28 29
29 29 29 29 29 29 30 30 31 32 32 33 33 33 32 31 31 31 31 31 31 30 30 30 30 30 30 31 31 30 29 29 30 29 29 29 29 29 28 27 28 29 29
29 29 30 30 30 30 30 30 31 32 33 34 34 34 33 33 32 32 32 31 31 31 31 31 31 31 31 31 32 31 30 30 30 30 30 29 29 29 29 29 29 29 29
28 29 30 30 30 30 31 31 32 32 33 33 33 33 33 32 31 32 32 31 31 31 31 31 32 32 33 33 32 31 31 31 31 31 30 30 29 30 30 30 31 31 30
28 29 29 30 30 31 31 31 31 33 33 32 32 32 32 32 32 32 32 32 31 31 31 31 32 32 32 32 32 32 32 32 32 32 31 31 31 31 30 30 31 31 31
29 29 29 29 30 30 30 30 30 31 31 31 32 31 31 32 33 32 32 31 31 31 31 31 32 32 32 32 32 32 33 32 32 32 32 32 32 32 31 31 30 30 30
30 29 29 30 30 30 30 31 31 30 30 30 31 31 31 31 32 32 32 31 30 31 31 31 31 31 32 32 31 32 32 32 32 32 31 32 32 32 32 31 31 31 31
31 30 30 29 30 30 31 31 31 31 31 31 31 31 31 32 32 33 33 32 32 32 32 32 32 32 33 32 31 31 31 31 31 31 31 31 31 31 31 32 32 31 31
31 32 31 31 31 31 31 31 31 31 32 31 32 32 33 33 33 33 33 33 34 33 33 33 33 33 33 33 32 32 32 31 30 30 30 30 31 30 31 31 31 31 32
32 32 31 31 31 31 30 30 30 31 31 31 31 32 32 33 33 33 34 34 35 34 34 34 34 34 34 34 34 34 33 32 31 30 30 31 31 31 31 31 32 32 32
30 30 29 30 30 30 29 29 30 30 30 30 31 31 31 32 32 33 33 34 35 35 35 34 35 35 35 35 35 34 33 33 33 32 31 31 32 32 32 32 32 32 32
29 28 28 27 27 27 28 29 29 29 30 30 30 31 31 31 31 31 31 32 33 34 34 34 34 35 34 34 33 32 31 31 31 31 31 31 31 32 32 32 32 32 32
28 28 27 26 26 26 26 27 27 28 29 29 29 30 30 31 31 32 31 31 32 32 33 33 33 33 34 33 32 31 31 31 31 31 32 32 32 33 33 33 33 33 33
27 26 25 25 25 25 25 26 26 27 27 27 28 29 29 30 30 30 31 31 31 31 31 31 31 32 32 32 32 32 31 31 31 32 32 33 33 33 33 32 33 33 32
25 25 25 24 24 24 25 25 25 25 26 26 26 27 27 27 28 28 28 28 28 29 29 29 30 30 31 31 31 32 31 31 32 32 33 33 33 33 32 32 33 33 32
24 24 24 24 24 24 25 25 25 25 25 25 25 25 25 25 25 26 27 27 27 27 28 29 29 30 31 32 32 32 31 32 32 33 33 33 33 33 33 33 33 33 33
24 24 24 24 24 24 24 24 24 25 24 24 24 25 25 25 26 26 27 27 28 28 28 29 30 30 31 32 32 32 32 32 33 33 33 34 34 35 35 35 34 34 34
24 23 23 23 23 23 23 23 24 24 24 24 24 25 25 26 26 27 27 28 28 28 28 29 30 30 31 31 31 32 32 33 33 33 34 34 34 34 34 34 34 35 34
23 23 23 23 23 23 23 24 24 24 24 25 25 26 26 26 27 27 27 27 28 29 29 29 29 30 30 31 31 31 31 32 33 33 34 34 34 34 34 34 34 34 34
23 23 23 23 24 24 24 25 25 25 25 26 26 26 26 26 27 27 27 27 28 28 28 29 28 29 29 30 30 31 32 32 33 33 33 33 34 34 34 34 34 34 34
Wind_Direction
276 275 273 272 270 269 269 269 270 269 267 267 269 267 267 267 268 268 269 272 272 272 271 272 275 276 276 276 275 273 273 273 273 273 273 275 277 277 275 274 275 274 273
273 272 272 271 270 270 270 270 270 270 269 267 266 265 265 266 268 268 269 271 272 272 272 272 275 276 277 277 277 275 274 272 272 273 273 273 274 274 273 273 275 275 273
272 272 271 270 270 270 271 271 269 269 269 268 266 266 266 267 268 268 268 268 270 270 271 272 273 274 276 277 278 277 275 273 272 272 271 272 272 272 273 273 274 274 273
274 273 272 270 270 270 271 270 270 270 269 269 266 267 267 267 267 267 267 266 268 270 271 272 273 274 276 276 276 276 275 274 273 272 272 272 272 272 271 273 273 273 273
275 274 272 271 269 269 269 269 271 271 270 269 268 268 267 266 266 267 267 266 268 270 271 272 273 273 275 274 275 274 274 274 275 274 275 273 273 273 272 271 271 272 271
277 275 273 272 271 270 270 270 270 271 271 270 269 269 268 268 267 267 266 265 266 268 270 271 271 272 273 273 272 272 273 274 275 275 275 274 272 272 272 271 272 272 271
278 277 274 273 273 272 271 271 271 270 272 272 272 271 269 267 266 266 264 264 265 266 268 270 270 271 271 271 269 270 272 273 273 274 275 274 272 272 272 271 271 271 271
277 277 276 274 274 274 273 272 271 270 271 272 273 272 270 267 266 266 265 264 265 266 267 269 270 270 270 270 269 269 270 272 271 272 273 273 272 272 272 271 271 271 272
277 277 276 275 274 273 274 273 271 271 271 270 270 271 269 268 266 265 265 265 265 266 267 269 270 269 269 270 269 269 270 271 271 273 273 273 273 273 272 272 273 273 272
278 277 277 276 276 275 274 274 272 272 271 269 269 269 267 267 267 266 264 265 265 265 266 269 270 269 269 270 270 270 270 271 272 273 272 272 273 273 272 272 272 272 272
280 279 278 277 277 277 276 275 274 273 273 271 269 268 267 267 268 267 265 264 265 265 265 267 269 270 270 271 270 269 269 270 271 271 270 270 271 271 271 272 272 272 271
280 280 279 279 278 277 277 277 276 274 272 271 270 268 267 267 267 266 265 264 263 263 265 267 268 270 271 271 271 270 269 270 269 270 270 269 270 270 270 271 271 271 271
279 280 279 278 278 276 277 278 278 276 272 270 269 268 266 266 266 266 265 265 264 263 264 266 267 269 270 270 271 271 270 269 269 269 268 268 268 267 268 268 270 270 270
280 280 280 280 278 278 278 279 278 277 273 271 271 268 266 266 266 266 266 268 266 263 264 266 267 267 268 270 271 271 270 270 268 268 267 267 266 266 266 267 268 269 269
281 280 281 281 280 279 278 278 278 278 276 273 271 270 267 266 266 266 266 267 267 266 265 267 267 267 267 268 268 269 270 270 268 267 266 266 266 266 266 266 267 269 269
284 282 281 280 280 280 278 277 277 278 278 276 274 272 270 267 265 265 265 265 266 266 265 266 267 267 267 267 267 267 268 268 268 267 267 267 266 266 266 267 267 268 269
285 284 283 281 281 279 278 277 276 276 277 277 275 274 273 270 269 268 268 267 267 266 266 267 266 266 266 267 266 266 266 266 266 267 267 268 268 267 267 268 269 270 270
287 287 285 284 284 282 280 278 277 275 276 276 275 275 273 272 271 271 269 268 268 268 267 267 266 266 265 265 265 264 263 263 265 266 267 268 268 268 268 269 270 270 271
288 288 287 285 285 284 282 281 281 279 278 277 276 275 274 273 273 272 271 269 269 269 268 267 267 266 266 264 263 262 261 262 264 266 267 268 268 269 270 270 270 270 270
289 289 287 285 285 285 284 283 284 283 281 281 279 278 277 276 275 274 272 270 270 269 268 267 266 264 264 263 263 262 262 264 265 266 267 268 269 270 270 270 269 269 269
289 288 287 286 286 286 286 286 286 285 283 282 281 281 281 279 278 276 275 273 272 270 268 267 266 265 264 264 265 264 264 266 266 267 268 269 270 271 270 269 268 268 268
290 290 289 287 287 288 288 288 287 287 286 284 283 282 282 282 281 279 278 275 273 271 269 268 268 267 267 265 265 265 264 266 266 267 269 269 270 271 271 269 268 268 267
289 289 288 288 287 288 290 289 288 287 287 285 283 282 283 282 281 280 278 275 273 271 270 269 268 268 268 268 266 266 266 267 267 267 268 268 269 271 271 270 269 267 267
289 288 288 288 289 289 290 291 291 289 287 285 284 284 283 283 282 281 279 276 275 272 272 271 270 269 269 270 269 269 268 268 269 270 270 269 268 270 270 270 270 268 267
289 289 289 289 289 289 289 291 292 291 289 287 286 286 285 285 285 284 282 279 277 276 275 274 273 271 270 270 270 270 270 271 271 271 272 270 269 270 270 270 269 268 267
289 290 290 290 290 290 290 290 291 291 290 289 288 287 286 286 287 286 285 283 280 278 277 275 274 273 272 271 270 271 272 272 272 272 272 272 272 272 271 270 270 268 268
Height
5794 5794 5793 5793 5793 5793 5792 5792 5792 5792 5791 5792 5792 5792 5792 5792 5792 5792 5792 5792 5791 5791 5791 5791 5790 5790 5790 5789 5789 5789 5789 5788 5788 5788 5787 5786 5786 5785 5784 5784 5783 5782 5782
5787 5787 5786 5786 5786 5785 5785 5785 5785 5784 5784 5785 5785 5785 5785 5785 5785 5785 5785 5785 5785 5785 5784 5784 5784 5783 5783 5783 5782 5782 5781 5781 5780 5780 5780 5779 5778 5778 5777 5777 5776 5775 5775
5780 5779 5779 5778 5778 5778 5778 5778 5777 5777 5777 5777 5777 5777 5777 5777 5777 5777 5777 5777 5777 5777 5777 5777 5777 5776 5776 5775 5775 5774 5773 5773 5773 5772 5772 5771 5771 5771 5770 5770 5769 5768 5767
5771 5771 5771 5770 5770 5770 5769 5769 5769 5769 5769 5768 5768 5768 5768 5769 5769 5769 5769 5769 5769 5769 5769 5769 5769 5768 5768 5767 5767 5766 5766 5765 5765 5764 5764 5764 5763 5763 5763 5762 5762 5761 5760
5763 5762 5762 5762 5761 5761 5760 5760 5760 5760 5760 5760 5760 5759 5759 5759 5760 5760 5761 5761 5761 5761 5761 5761 5760 5760 5759 5759 5759 5758 5758 5757 5757 5756 5756 5756 5755 5755 5755 5754 5753 5752 5752
5754 5754 5753 5753 5752 5752 5751 5751 5751 5751 5751 5751 5751 5750 5750 5750 5750 5751 5752 5752 5752 5752 5752 5752 5752 5751 5751 5750 5750 5750 5749 5749 5749 5748 5748 5747 5747 5747 5746 5745 5744 5744 5744
5746 5744 5744 5743 5743 5742 5742 5741 5741 5741 5741 5741 5741 5741 5741 5741 5741 5742 5742 5743 5743 5743 5743 5743 5743 5742 5742 5741 5741 5741 5741 5740 5740 5740 5740 5739 5738 5738 5738 5737 5736 5735 5735
5737 5736 5734 5734 5733 5733 5732 5732 5732 5731 5731 5731 5731 5731 5731 5731 5731 5732 5732 5733 5733 5733 5733 5733 5733 5733 5733 5732 5732 5732 5732 5731 5731 5731 5731 5730 5730 5729 5729 5728 5727 5726 5726
5727 5726 5725 5724 5724 5723 5723 5722 5722 5721 5721 5721 5721 5721 5721 5721 5721 5722 5722 5723 5723 5723 5724 5723 5723 5723 5723 5722 5722 5722 5723 5722 5722 5721 5721 5721 5720 5720 5719 5719 5718 5717 5717
5718 5717 5716 5715 5714 5714 5713 5712 5712 5711 5711 5710 5710 5710 5710 5711 5711 5712 5712 5713 5714 5714 5714 5713 5713 5713 5713 5712 5712 5712 5713 5713 5712 5712 5712 5711 5711 5710 5710 5709 5708 5708 5707
5709 5708 5707 5706 5705 5704 5703 5703 5702 5701 5701 5700 5700 5700 5700 5701 5701 5701 5702 5703 5703 5703 5703 5704 5703 5703 5702 5702 5702 5702 5703 5703 5702 5702 5702 5701 5701 5700 5700 5699 5699 5698 5698
5701 5699 5698 5697 5696 5695 5693 5693 5692 5691 5691 5690 5690 5690 5690 5691 5691 5691 5691 5692 5693 5693 5693 5693 5693 5693 5692 5692 5692 5692 5692 5691 5691 5691 5691 5691 5691 5691 5690 5690 5689 5688 5688
5692 5690 5689 5688 5686 5685 5685 5684 5682 5681 5681 5681 5680 5680 5681 5681 5681 5681 5681 5681 5682 5683 5683 5683 5683 5682 5682 5682 5681 5681 5681 5681 5681 5681 5681 5681 5681 5680 5680 5680 5679 5678 5678
5683 5681 5680 5678 5677 5676 5675 5674 5673 5672 5671 5671 5671 5671 5671 5671 5671 5671 5671 5671 5672 5672 5673 5673 5672 5672 5672 5671 5671 5671 5670 5670 5670 5670 5671 5671 5670 5670 5670 5670 5670 5669 5668
5673 5672 5670 5669 5668 5667 5666 5664 5663 5662 5661 5661 5661 5660 5661 5661 5661 5661 5661 5661 5661 5662 5662 5662 5662 5661 5661 5661 5661 5661 5660 5660 5660 5660 5660 5660 5660 5660 5660 5660 5660 5659 5659
5664 5662 5661 5659 5658 5657 5656 5655 5653 5652 5651 5650 5650 5650 5650 5650 5650 5650 5650 5650 5650 5650 5650 5651 5651 5651 5651 5651 5651 5650 5650 5650 5650 5650 5650 5650 5650 5650 5650 5650 5649 5649 5649
5655 5653 5651 5650 5649 5647 5646 5645 5645 5644 5642 5641 5640 5640 5639 5639 5639 5639 5639 5639 5639 5639 5639 5639 5639 5640 5640 5640 5640 5640 5640 5640 5640 5640 5641 5641 5640 5640 5640 5640 5640 5639 5639
5646 5644 5643 5641 5640 5638 5637 5636 5635 5634 5634 5632 5632 5631 5630 5629 5629 5628 5628 5628 5628 5627 5627 5628 5628 5628 5628 5628 5629 5629 5629 5630 5630 5630 5631 5631 5630 5630 5630 5630 5629 5629 5629
5638 5636 5634 5633 5631 5630 5629 5627 5626 5625 5625 5624 5623 5622 5620 5619 5619 5618 5617 5617 5617 5616 5616 5617 5617 5617 5617 5617 5618 5618 5619 5619 5620 5620 5620 5620 5620 5620 5620 5619 5619 5619 5618
5631 5629 5627 5625 5624 5622 5621 5619 5618 5617 5616 5615 5614 5612 5611 5610 5609 5608 5607 5607 5606 5606 5606 5606 5606 5606 5607 5607 5608 5608 5609 5609 5610 5610 5610 5610 5610 5610 5609 5609 5609 5608 5608
5623 5621 5619 5618 5616 5615 5613 5612 5610 5609 5608 5606 5605 5603 5602 5601 5600 5599 5598 5597 5596 5596 5596 5596 5596 5597 5597 5597 5598 5599 5599 5599 5599 5600 5600 5600 5599 5599 5599 5598 5598 5598 5598
5616 5614 5612 5611 5609 5607 5606 5604 5602 5601 5599 5598 5597 5595 5594 5593 5591 5590 5589 5588 5587 5587 5587 5587 5587 5587 5587 5588 5588 5588 5589 5589 5589 5589 5589 5589 5589 5588 5588 5588 5588 5587 5587
5609 5607 5605 5604 5602 5600 5598 5597 5595 5593 5591 5590 5588 5587 5586 5585 5583 5582 5581 5579 5578 5578 5577 5577 5577 5577 5577 5577 5577 5578 5578 5578 5579 5578 5578 5578 5578 5578 5577 5577 5577 5577 5576
5602 5600 5598 5597 5595 5593 5591 5589 5587 5586 5584 5582 5581 5579 5578 5577 5575 5574 5572 5571 5570 5569 5568 5568 5567 5567 5567 5567 5567 5567 5567 5567 5567 5567 5567 5567 5567 5566 5566 5566 5565 5565 5565
5595 5593 5591 5590 5588 5586 5584 5582 5580 5578 5576 5575 5573 5571 5570 5568 5567 5565 5564 5562 5561 5560 5559 5558 5558 5557 5557 5557 5556 5556 5556 5556 5556 5556 5556 5556 5556 5555 5555 5554 5554 5554 5554
5588 5586 5584 5582 5581 5579 5577 5575 5573 5571 5569 5567 5565 5563 5562 5560 5558 5556 5555 5553 5552 5551 5550 5549 5548 5547 5547 5547 5546 5546 5546 5545 5545 5545 5545 5545 5544 5544 5544 5543 5543 5543 5543